Lid_Strength_Index
8 7 7 8 8 8 9 8 10 9 9 7 6 6 5 5 4 4 4 4 4 5 4 5 5 5 5 6 7 7 8 7 7 7 8 9 8 8 8 8 8 8 9 9
11 8 8 8 8 7 8 7 8 8 8 5 5 5 5 5 5 5 4 5 5 5 5 6 6 6 7 8 8 8 8 9 9 9 10 9 8 7 8 8 9 9 9 9
15 10 9 11 8 8 7 7 7 9 7 6 6 6 5 5 5 5 5 6 5 5 5 6 7 7 8 8 8 8 9 10 10 10 9 7 8 8 9 10 10 9 9 10
12 10 16 9 6 6 8 7 6 6 6 6 5 5 4 4 4 5 5 5 5 5 6 7 7 7 7 8 9 9 10 10 10 10 7 8 8 9 10 10 10 10 9 9
13 13 10 10 8 8 9 8 6 6 6 5 5 5 5 4 4 5 4 4 5 5 6 7 7 7 8 9 9 9 9 10 9 7 7 8 8 9 10 10 10 10 10 10
11 16 17 9 6 5 5 10 6 5 6 6 5 8 7 4 5 4 4 4 5 6 6 7 8 8 8 9 8 9 8 8 6 7 6 7 7 7 8 8 10 10 10 10
12 14 11 7 6 5 12 10 5 5 5 5 6 6 4 4 4 4 4 5 6 6 7 8 7 7 7 7 7 7 7 7 6 6 6 7 7 7 8 7 8 8 8 8
13 16 17 6 7 10 7 5 4 4 4 5 4 4 4 4 4 4 5 6 6 6 7 6 6 6 6 7 6 7 7 7 7 7 7 8 7 8 8 8 8 8 7 7
11 12 7 6 6 5 5 5 4 4 4 4 4 4 4 4 4 5 5 6 5 6 6 6 5 5 6 6 6 7 7 7 7 7 7 8 8 8 10 9 9 10 9 8
9 7 7 5 5 4 4 5 3 3 3 3 4 3 3 4 4 5 5 5 5 6 6 6 5 5 5 6 6 7 8 8 7 8 8 8 9 9 10 11 11 11 10 10
8 6 6 6 5 5 4 3 3 3 3 3 3 3 3 4 4 5 6 6 6 6 6 6 5 5 5 5 7 8 8 8 8 8 8 8 8 10 11 11 12 12 12 10
9 7 6 7 4 3 4 4 3 3 3 3 3 3 3 4 4 5 6 6 6 6 6 6 5 5 5 5 7 7 8 8 8 8 8 9 9 9 13 13 12 12 12 11
6 4 5 5 4 3 3 3 3 3 3 3 3 3 3 3 4 5 6 6 6 6 6 5 5 5 5 6 6 7 7 7 8 9 9 9 10 9 9 10 11 11 11 12
3 4 6 5 6 4 3 3 3 2 2 3 3 3 3 4 5 5 6 5 6 6 6 5 5 5 5 6 7 7 7 9 7 7 8 8 9 9 9 8 9 8 11 11
4 3 4 4 4 4 3 3 3 3 3 3 3 3 4 4 4 5 5 5 6 6 5 6 5 5 5 6 7 7 8 7 7 7 7 8 8 9 9 9 9 9 8 9
4 4 4 5 5 5 4 4 4 3 3 3 3 3 4 4 4 5 5 5 6 6 5 5 5 4 4 6 6 7 6 9 9 6 7 8 8 9 10 10 9 8 9 9
6 6 5 5 5 5 4 3 3 3 3 2 2 2 3 4 4 4 5 5 5 5 5 5 5 4 4 5 6 7 7 6 11 7 7 8 9 10 10 10 9 9 8 10
3 3 3 3 4 4 3 3 2 2 2 2 2 2 3 3 4 4 5 5 5 5 4 4 4 3 4 6 5 6 7 7 7 8 8 8 9 10 10 10 9 9 8 8
2 3 2 2 3 3 3 2 2 2 2 2 2 2 2 2 3 3 4 5 6 6 4 3 7 5 4 7 8 7 7 8 7 8 9 10 9 9 10 10 10 9 9 8
2 2 2 2 2 2 2 2 2 2 2 1 2 2 2 3 3 3 3 4 4 4 3 3 3 3 3 6 9 7 7 8 8 9 9 8 9 9 10 12 10 9 9 8
2 2 3 3 3 2 2 2 2 2 2 1 2 2 2 2 3 3 3 4 3 4 3 6 4 4 4 7 8 7 7 8 8 9 9 8 8 9 10 10 9 8 8 8
2 3 3 3 3 3 2 2 2 2 2 2 1 2 2 3 3 3 2 2 2 11 4 3 3 9 6 12 7 7 8 8 8 8 8 9 9 10 10 9 8 8 8 7
2 2 3 3 3 2 2 2 1 1 2 1 1 2 2 3 3 3 3 3 3 7 3 3 10 12 12 4 7 7 8 8 9 9 9 9 10 10 9 8 8 8 8 7
3 2 2 2 2 2 3 2 2 1 1 1 1 1 2 3 3 1 2 7 10 8 3 5 7 11 12 5 7 7 7 7 8 8 9 13 11 10 8 8 8 7 7 7
2 2 2 2 3 3 3 2 2 2 2 1 1 1 1 1 2 2 3 3 10 6 4 11 10 10 4 5 7 7 7 8 8 9 10 11 11 9 8 8 8 7 7 7
2 2 3 2 3 3 3 2 3 2 2 2 2 1 1 1 1 1 3 5 4 6 3 2 2 3 4 5 6 7 7 8 8 9 11 10 10 8 8 7 7 7 7 7
3 4 3 3 2 2 2 2 3 2 2 1 2 1 1 2 3 3 5 2 2 3 3 2 2 5 4 4 6 7 8 9 11 10 10 10 9 8 7 7 7 7 7 7